Tracking 19817 objects as of 19-Aug-2019
HD Live streaming from Space Station
objects crossing your sky now

ARIANE 44L DEB

Track ARIANE 44L DEB now!


NORAD ID: 24741
Int'l Code: 1991-003H
Perigee: 694.2 km
Apogee: 30,693.5 km
Inclination: 6.4 °
Period: 543.6 minutes
Semi major axis: 22064 km
RCS: 0.2921 m2 (medium)
Launch date: January 15, 1991
Source: France (FR)
Launch site: FRENCH GUIANA (FRGUI)

Note: This is SATELLITE DEBRIS
aabbcc
Your satellite tracking list
Your tracking list is empty




NASA's NSSDC Master Catalog

Two Line Element Set (TLE):
1 24741U 91003H   19230.42799743 -.00000294 +00000-0 -34788-2 0  9990
2 24741 006.4322 230.0414 6797991 144.7325 307.1768 02.64881854224865
Source of the keplerian elements: AFSPC